Location: Sungai Dangang
(2.7500°N, 113.8333°E)
Time: 11:48:16
(UTC+00:00)

Daily predictions for brighter satellites

Satellite Brightness Start Highest point End
(mag) Time Altitude Azimuth Time Altitude Azimuth Time Altitude Azimuth
SWAS 4.4 12:02:28 10° SSW 12:06:44 82° WNW 12:07:42 52° N
Cosmos 1486 Rocket 4.2 12:01:55 10° N 12:06:17 47° NE 12:06:17 47° NE
Cosmos 2333 Rocket 3.6 12:01:57 10° SW 12:07:06 37° WNW 12:12:16 10° N
Nadezhda 3 Rocket 4.1 12:02:36 10° N 12:08:57 76° W 12:15:17 10° S
Cosmos 968 Rocket 3.4 12:03:55 10° N 12:09:07 66° ENE 12:10:41 43° SE
ASTEX 1 3.6 12:10:01 50° SE 12:10:01 50° SE 12:13:58 10° S
Atlas Centaur 2 3.0 12:04:43 10° WNW 12:10:50 46° SW 12:13:19 27° SSE
Cosmos 1238 Rocket 3.6 12:05:40 10° S 12:11:44 66° E 12:12:57 51° NE
Spelda 3.8 12:09:46 10° SW 12:12:08 28° S 12:12:08 28° S
COSMOS 2455 3.9 12:09:53 10° NW 12:15:31 44° WSW 12:21:11 10° S
Ariane 42L Rocket 2.6 12:08:26 10° W 12:15:45 68° NNW 12:15:45 68° NNW
Lacrosse 5 rocket 3.6 12:17:45 10° WNW 12:20:53 22° WSW 12:23:37 11° SSW
CENTAUR R/B 1.9 12:17:00 10° SSW 12:22:05 83° WNW 12:22:41 70° N
FALCON 9 R/B 4.1 12:19:52 10° SSW 12:26:39 55° SE 12:31:51 41° E
ARIANE 5 R/B 4.1 12:24:34 10° WSW 12:27:41 46° S 12:27:41 46° S
Meteor 2-4 Rocket 3.7 12:23:35 10° N 12:29:31 85° E 12:35:26 10° S
NOSS 3-2 (C) 3.0 12:24:11 10° SSW 12:29:31 78° WNW 12:29:31 78° WNW
Milstar 3 3.2 12:22:20 10° WNW 12:34:38 86° SSW 12:36:40 56° SE
SL-08 R/B 4.4 12:28:52 10° S 12:34:54 81° SE 12:34:54 81° SE
ARIANE 44LP R/B 4.4 12:14:58 10° W 12:36:45 43° SSW 12:37:58 39° SSE
Cosmos 1980 4.5 12:40:34 10° SSW 12:44:25 45° SSW 12:44:25 45° SSW
BLOCK DM-SL R/B 4.1 12:44:23 10° W 12:54:54 48° WSW 12:54:54 48° WSW
Centaur D-1AR AC-36 4.2 13:12:41 10° WSW 13:38:14 54° SW 13:38:14 54° SW
Ariane H10+ 4.5 13:31:45 10° W 13:50:17 46° SW 13:50:17 46° SW
Cosmos 1980 Rocket 4.4 19:49:43 20° E 19:49:43 20° E 19:52:40 10° ESE
Ariane 42L Rocket 4.3 20:04:03 74° E 20:04:03 74° E 20:18:45 10° E
Ariane H10+ 3.9 20:15:23 22° E 20:15:23 22° E 20:17:57 10° E
ARIANE 5 DEB (SYLDA) 4.0 20:14:19 66° ENE 20:14:19 66° ENE 20:17:54 10° E
ARIANE 5 DEB (SYLDA) 4.4 20:13:41 80° SW 20:14:18 84° S 20:30:28 10° E
ATLAS 5 CENTAUR R/B 3.3 20:37:03 25° ENE 20:37:03 25° ENE 20:39:10 10° NE
CZ-3 R/B 4.0 20:28:42 42° W 20:37:32 54° NW 20:48:02 10° NE
ARIANE 5 R/B 3.4 20:44:54 44° E 20:44:54 44° E 20:47:23 10° E
Chandra Rocket (1) 2.9 20:50:29 50° NNW 20:51:41 61° NNE 20:55:11 10° ESE
Ariane H10-3 3.7 20:53:59 52° WSW 20:55:15 67° S 21:20:22 10° E
CZ-2C R/B 3.8 20:53:25 13° S 20:55:39 18° SE 20:58:41 10° E
Delta 168 3.2 20:56:10 76° SSW 20:56:10 76° SSW 21:02:16 10° ESE
Cosmos 1408 Rocket 3.7 20:56:52 30° N 20:58:54 68° E 21:03:12 10° S
H-2A R/B 4.3 20:57:51 10° SE 21:01:29 25° ENE 21:05:03 10° NNE
GPS 2-17 Rocket1 3.7 21:05:29 40° NNW 21:05:29 40° NNW 21:09:39 10° NE
Landsat 5 3.8 21:04:49 10° SSE 21:08:40 59° ENE 21:12:26 10° N
Cosmos 2278 3.8 21:08:34 47° WNW 21:09:24 51° WSW 21:14:54 10° S
Ariane H10 1.8 21:12:14 50° ENE 21:12:14 50° ENE 21:14:10 10° E
Ariane 44LP R/B 3.5 21:11:21 39° WSW 21:12:55 66° SSE 21:30:20 10° E
Cosmos 1932 4.3 21:10:34 18° NNW 21:15:15 81° WSW 21:21:24 10° SSE
GPS 2-12 Rocket1 3.8 21:15:12 34° SW 21:15:44 36° SSW 21:19:51 10° SE
Cosmos 1461 4.1 21:19:07 25° SSW 21:19:07 25° SSW 21:21:17 10° S
CZ-4C R/B 2.3 21:19:30 34° NW 21:19:30 34° NW 21:22:54 10° N
Intelsat 5-1 Rocket 4.4 21:15:15 10° SW 21:19:41 18° S 21:22:21 10° SE
Iridium 45 4.5 21:16:31 10° N 21:20:16 89° E 21:23:49 10° S
Cosmos 1151 Rocket 4.2 21:21:03 10° SSE 21:25:15 45° E 21:29:23 10° NNE
Cosmos 1110 Rocket 4.1 21:22:44 22° NW 21:25:52 49° WSW 21:30:50 10° S
GPS 2-18 Rocket1 2.9 21:27:40 41° WSW 21:28:53 89° NW 21:32:41 10° ENE
Cosmos 2297 Rocket 4.2 21:25:22 10° SSE 21:30:14 30° ESE 21:35:05 10° NE
Hubble Space Telescope 1.6 21:30:19 29° WSW 21:31:24 35° SSW 21:35:12 10° SE
Cosmos 1980 Rocket 3.1 21:31:35 25° W 21:32:08 26° WSW 21:36:43 10° SSW
CZ-4C R/B 2.9 21:30:31 10° S 21:33:33 46° W 21:34:39 31° NW
DELTA 2 R/B (1) 4.0 21:32:43 26° W 21:35:23 43° SW 21:40:40 10° SSE
deb Ariane 3.0 21:36:14 24° SW 21:37:24 38° S 21:39:43 10° E
H-2A R/B 2.6 21:34:12 10° N 21:38:01 81° W 21:41:49 10° SSW
Cosmos 1745 Rocket 4.2 21:32:18 10° NNW 21:38:20 48° W 21:44:25 10° SSW
USA 234 3.2 21:33:46 10° SSE 21:40:18 77° SW 21:46:50 10° NW
Cosmos 1862 3.6 21:37:52 10° NNW 21:41:41 44° W 21:45:30 10° SSW
BREEZE-M (TANK) 3.1 21:40:21 19° NW 21:42:39 74° SW 21:53:05 10° SE
Cosmos 1933 3.5 21:39:35 10° SSW 21:43:26 46° W 21:47:15 10° NNW
Cosmos 407 Rocket 3.5 21:38:48 10° SSW 21:44:00 59° WNW 21:49:08 10° N
BLOCK DM-SL R/B 3.1 21:41:30 18° WSW 21:44:51 56° S 21:48:48 10° ESE
Cosmos 2322 Rocket 2.9 21:40:08 10° N 21:45:41 57° ENE 21:51:14 10° SSE
Alouette 2 Rocket 4.3 21:43:45 10° SW 21:47:01 28° WNW 21:51:02 10° NNW
Intelsat 5-3 Rocket 2.9 21:45:07 21° W 21:47:23 62° SSW 21:54:55 10° ESE
Ariane H10 4.0 21:44:35 11° SW 21:47:31 21° S 21:49:52 10° SE
Cosmos 1328 Rocket 3.7 21:43:20 10° S 21:47:41 77° E 21:51:58 10° N
NOSS 3-4 (A) 4.2 21:43:08 11° WSW 21:47:51 27° WNW 21:52:39 10° N
NOSS 3-4 (C) 4.1 21:43:01 10° WSW 21:47:56 27° WNW 21:52:46 10° N
COSMO-SKYMED 1 3.8 21:44:31 10° SSE 21:48:40 45° ENE 21:52:47 10° N
Cosmos 1190 Rocket 3.9 21:43:52 10° SSW 21:49:09 75° WNW 21:54:26 10° N
ARIANE 5 R/B 1.8 21:47:55 17° W 21:50:31 59° S 21:52:31 10° E
Cosmos 1709 Rocket 4.0 21:44:43 10° N 21:51:04 75° W 21:57:23 10° S
SJ-7 4.3 21:50:43 10° N 21:54:43 80° WNW 21:58:50 10° SSW
Cosmos 2219 3.9 21:54:05 10° S 21:59:43 60° ESE 22:05:18 10° NNE
CZ-4B R/B 2.3 21:57:14 10° SSE 22:00:26 50° E 22:03:34 10° N
ATLAS 2AS CENTAUR R/B 3.3 21:54:32 10° SW 22:01:41 45° WNW 22:09:07 10° N
ATLAS 3B CENTAUR R/B 3.8 21:59:09 10° SSW 22:03:40 41° SE 22:12:57 10° ENE
ATLAS CENTAUR R/B 1.6 22:03:37 10° NNW 22:08:04 68° WSW 22:12:45 10° SSE
SL-16 R/B 2.3 22:04:04 10° NNW 22:09:34 56° WSW 22:15:06 10° S
Nadezhda 1 Rocket 3.9 22:05:00 10° S 22:11:03 83° W 22:17:08 10° N
MOS 1 Rocket 3.0 22:08:25 10° S 22:12:43 71° WSW 22:16:57 10° NNW
Cosmos 1805 Rocket 3.7 22:09:01 10° NNW 22:13:21 55° W 22:17:41 10° S
CZ-4B R/B 4.3 22:10:50 10° NNW 22:14:15 21° WNW 22:17:38 10° SW
deb Ariane 4.2 22:14:57 10° WSW 22:21:51 38° S 22:24:41 10° ESE
ARIANE 5 DEB (SYLDA) 3.9 22:23:15 10° W 22:42:14 80° S 22:47:12 10° E
Ariane H10 4.3 22:11:02 10° W 22:56:56 88° N 23:01:48 10° E
BLOCK DM-SL R/B 4.2 22:32:45 10° W 23:05:15 60° S 23:09:32 10° ESE
